Temp
-24 -24 -22 -19 -17 -16 -16 -15 -16 -14 -14 -14 -13 -13 -13 -13 -13 -13 -13 -13 -13 -13 -13 -13 -13 -13 -12 -12 -13 -13 -13 -13 -13 -14 -14 -13 -14 -15 -15 -15 -16 -16 -17 -12
-24 -24 -23 -21 -19 -17 -16 -16 -17 -16 -15 -14 -13 -13 -13 -13 -13 -13 -13 -13 -13 -13 -13 -13 -13 -12 -12 -13 -13 -13 -13 -13 -14 -14 -14 -14 -15 -16 -16 -17 -17 -16 -17 -14
-23 -22 -22 -22 -22 -19 -19 -17 -15 -15 -14 -14 -14 -13 -13 -13 -13 -13 -13 -13 -13 -13 -13 -13 -13 -13 -13 -13 -13 -14 -14 -14 -15 -16 -16 -15 -16 -17 -17 -17 -17 -18 -17 -17
-22 -20 -19 -21 -22 -22 -19 -17 -16 -15 -14 -13 -13 -13 -13 -13 -13 -13 -13 -13 -13 -13 -13 -14 -14 -14 -14 -14 -15 -15 -15 -15 -16 -17 -17 -17 -17 -17 -17 -17 -16 -17 -17 -18
-21 -18 -19 -18 -20 -19 -18 -17 -16 -15 -14 -14 -13 -13 -13 -13 -13 -13 -13 -13 -13 -14 -14 -14 -15 -15 -15 -16 -16 -16 -16 -17 -17 -18 -18 -18 -18 -19 -19 -19 -19 -19 -18 -18
-21 -19 -20 -21 -20 -17 -17 -16 -16 -15 -14 -14 -13 -14 -13 -13 -13 -13 -14 -14 -14 -14 -15 -16 -16 -17 -17 -17 -17 -17 -18 -18 -18 -18 -19 -19 -18 -19 -20 -19 -20 -20 -19 -20
-22 -21 -19 -20 -21 -20 -17 -15 -16 -16 -15 -14 -14 -14 -14 -14 -14 -14 -14 -15 -16 -17 -17 -17 -17 -17 -17 -18 -18 -19 -19 -19 -19 -19 -20 -19 -19 -19 -20 -20 -20 -22 -23 -24
-22 -22 -21 -20 -19 -18 -18 -17 -16 -16 -15 -15 -15 -14 -14 -14 -15 -17 -18 -18 -18 -18 -18 -18 -18 -19 -19 -19 -19 -19 -19 -20 -21 -21 -21 -20 -20 -21 -20 -21 -21 -24 -24 -24
-22 -23 -22 -22 -21 -21 -19 -18 -17 -18 -18 -16 -15 -16 -16 -17 -19 -20 -19 -19 -19 -19 -19 -19 -19 -19 -19 -19 -20 -20 -21 -21 -22 -22 -22 -21 -21 -21 -22 -23 -22 -24 -24 -24
-23 -23 -22 -22 -22 -22 -21 -21 -20 -20 -20 -19 -19 -19 -19 -20 -20 -20 -20 -19 -20 -20 -20 -20 -20 -20 -21 -21 -21 -22 -22 -22 -22 -22 -22 -21 -22 -23 -23 -24 -25 -25 -24 -24
-23 -23 -23 -22 -22 -22 -22 -22 -22 -22 -21 -21 -21 -22 -21 -21 -21 -21 -20 -20 -21 -21 -21 -21 -21 -21 -22 -22 -22 -22 -22 -22 -22 -23 -23 -22 -24 -24 -25 -25 -24 -25 -25 -25
-24 -24 -23 -23 -23 -22 -22 -22 -22 -22 -22 -22 -22 -22 -22 -22 -22 -22 -22 -22 -22 -22 -22 -22 -22 -22 -22 -23 -23 -22 -23 -23 -24 -23 -24 -25 -25 -25 -25 -24 -25 -25 -26 -26
-25 -24 -24 -23 -23 -23 -23 -23 -23 -23 -23 -23 -23 -23 -22 -22 -22 -22 -22 -22 -23 -23 -23 -23 -23 -23 -23 -23 -23 -23 -23 -24 -23 -24 -25 -26 -26 -25 -25 -26 -26 -26 -26 -27
-25 -25 -24 -24 -24 -24 -24 -24 -24 -24 -24 -23 -23 -23 -23 -23 -23 -23 -23 -23 -23 -23 -23 -23 -23 -24 -24 -24 -24 -24 -24 -24 -26 -25 -25 -26 -26 -26 -26 -26 -27 -27 -27 -27
-25 -25 -25 -25 -24 -24 -24 -24 -24 -24 -24 -23 -24 -24 -24 -24 -24 -24 -24 -24 -24 -24 -24 -24 -24 -24 -24 -24 -24 -24 -25 -26 -27 -25 -27 -26 -26 -27 -27 -27 -27 -27 -27 -27
-28 -26 -25 -25 -25 -25 -25 -25 -25 -25 -25 -25 -25 -25 -25 -25 -25 -25 -25 -25 -24 -24 -25 -25 -25 -24 -25 -24 -24 -25 -27 -28 -27 -26 -27 -26 -27 -27 -28 -28 -27 -27 -27 -27
-29 -29 -28 -27 -26 -26 -26 -26 -26 -26 -26 -26 -26 -26 -26 -25 -26 -26 -26 -25 -25 -26 -25 -25 -25 -25 -25 -25 -25 -27 -27 -27 -27 -27 -28 -28 -27 -27 -27 -27 -27 -27 -27 -27
-30 -30 -30 -29 -28 -27 -27 -27 -27 -27 -27 -27 -27 -27 -27 -27 -27 -27 -26 -26 -26 -26 -26 -26 -26 -26 -25 -25 -27 -27 -27 -27 -27 -27 -27 -27 -27 -27 -27 -27 -27 -28 -28 -27
-30 -30 -30 -30 -30 -30 -30 -30 -29 -29 -29 -29 -29 -29 -28 -28 -28 -27 -28 -28 -28 -27 -27 -27 -27 -27 -26 -27 -27 -27 -27 -27 -27 -27 -27 -27 -27 -28 -28 -28 -28 -28 -28 -28
-30 -30 -31 -31 -31 -31 -31 -31 -31 -31 -31 -30 -30 -30 -29 -29 -28 -28 -29 -29 -29 -29 -28 -28 -27 -27 -28 -27 -27 -28 -28 -27 -27 -27 -27 -28 -28 -28 -28 -28 -29 -29 -28 -28
-30 -30 -31 -31 -31 -31 -31 -31 -31 -31 -31 -31 -30 -30 -30 -30 -30 -30 -30 -30 -30 -30 -29 -29 -28 -28 -28 -28 -28 -28 -27 -27 -27 -27 -28 -29 -29 -29 -29 -29 -29 -28 -28 -27
-31 -31 -31 -31 -31 -31 -31 -31 -31 -31 -31 -31 -31 -30 -30 -30 -30 -30 -30 -30 -30 -30 -30 -29 -29 -29 -28 -28 -28 -28 -27 -28 -28 -27 -28 -29 -29 -28 -28 -28 -28 -28 -27 -27
-31 -31 -31 -31 -31 -31 -31 -31 -31 -31 -31 -31 -31 -31 -30 -31 -30 -30 -30 -30 -30 -30 -30 -29 -29 -29 -28 -28 -28 -28 -28 -28 -27 -27 -27 -28 -28 -28 -28 -28 -28 -27 -27 -27
-31 -31 -31 -31 -31 -31 -31 -31 -31 -31 -31 -30 -31 -30 -30 -30 -30 -30 -30 -30 -30 -30 -30 -29 -29 -29 -29 -29 -28 -28 -28 -28 -28 -28 -28 -28 -28 -28 -29 -29 -28 -28 -28 -28
-31 -31 -31 -31 -31 -31 -31 -31 -31 -31 -31 -31 -31 -31 -31 -31 -30 -31 -31 -30 -30 -30 -29 -29 -29 -29 -29 -29 -29 -28 -29 -29 -29 -28 -28 -28 -29 -29 -29 -28 -28 -28 -28 -28
-31 -31 -31 -31 -31 -31 -31 -31 -31 -31 -31 -31 -31 -31 -31 -31 -31 -31 -30 -30 -30 -29 -29 -29 -29 -29 -29 -29 -29 -29 -29 -29 -29 -29 -29 -29 -29 -29 -28 -28 -28 -28 -28 -28
-31 -31 -31 -31 -31 -31 -31 -31 -31 -31 -31 -30 -30 -30 -30 -30 -30 -30 -30 -30 -30 -30 -29 -29 -29 -29 -29 -29 -29 -29 -29 -29 -29 -29 -29 -29 -29 -29 -29 -29 -28 -28 -28 -28
Height
5349 5360 5372 5388 5406 5424 5434 5455 5458 5482 5494 5500 5503 5518 5530 5543 5552 5560 5569 5583 5588 5598 5602 5608 5611 5613 5620 5625 5631 5630 5632 5631 5631 5636 5635 5638 5639 5634 5633 5634 5636 5633 5630 5642
5341 5346 5353 5366 5382 5399 5419 5426 5447 5463 5475 5476 5489 5507 5515 5527 5538 5547 5556 5567 5577 5588 5588 5590 5592 5598 5605 5611 5614 5615 5618 5616 5617 5615 5620 5623 5621 5620 5619 5617 5617 5615 5612 5622
5331 5330 5337 5351 5367 5379 5391 5409 5422 5432 5443 5461 5481 5495 5502 5516 5525 5534 5545 5554 5564 5572 5572 5576 5579 5584 5588 5594 5599 5602 5602 5603 5603 5602 5603 5609 5608 5608 5605 5605 5602 5605 5600 5598
5314 5305 5307 5322 5342 5357 5368 5389 5397 5417 5434 5454 5475 5485 5493 5506 5515 5522 5532 5539 5549 5556 5557 5559 5563 5571 5575 5578 5583 5585 5588 5591 5589 5588 5588 5593 5595 5593 5590 5588 5589 5584 5588 5577
5312 5296 5299 5301 5324 5343 5362 5380 5394 5422 5445 5453 5464 5469 5482 5496 5503 5510 5520 5528 5535 5538 5540 5548 5553 5558 5561 5565 5569 5571 5574 5575 5576 5578 5577 5580 5584 5582 5579 5579 5578 5570 5569 5567
5312 5303 5309 5319 5320 5340 5356 5377 5406 5425 5437 5444 5453 5463 5475 5484 5493 5501 5509 5513 5518 5520 5526 5533 5538 5542 5546 5552 5555 5559 5563 5563 5566 5567 5565 5567 5570 5575 5566 5566 5562 5557 5552 5551
5312 5312 5315 5330 5340 5348 5368 5387 5404 5417 5425 5433 5441 5453 5467 5475 5482 5490 5489 5494 5500 5507 5514 5520 5526 5531 5535 5538 5542 5547 5552 5552 5555 5556 5554 5556 5560 5558 5555 5549 5547 5541 5537 5534
5315 5318 5319 5327 5339 5354 5369 5385 5392 5403 5411 5421 5428 5442 5452 5460 5466 5467 5474 5482 5491 5496 5503 5508 5515 5518 5523 5527 5531 5537 5540 5542 5544 5545 5543 5548 5546 5542 5540 5538 5538 5531 5526 5523
5319 5322 5326 5330 5339 5348 5360 5368 5380 5391 5402 5407 5419 5432 5439 5442 5445 5452 5462 5473 5480 5489 5496 5501 5504 5511 5516 5518 5521 5526 5528 5529 5533 5532 5533 5534 5532 5525 5530 5526 5524 5517 5513 5511
5322 5327 5331 5336 5343 5349 5356 5365 5375 5385 5394 5398 5406 5422 5428 5433 5440 5449 5458 5467 5474 5483 5491 5493 5493 5501 5505 5509 5513 5518 5517 5518 5520 5519 5518 5521 5519 5515 5510 5516 5518 5505 5507 5503
5325 5329 5334 5341 5347 5353 5360 5366 5372 5382 5386 5395 5407 5419 5426 5431 5438 5447 5454 5463 5467 5476 5483 5481 5484 5494 5497 5501 5503 5506 5507 5508 5508 5508 5507 5507 5506 5503 5499 5502 5504 5499 5497 5491
5327 5331 5336 5342 5349 5356 5361 5367 5371 5380 5390 5399 5408 5415 5419 5425 5432 5442 5447 5456 5461 5469 5472 5473 5481 5487 5491 5492 5494 5496 5496 5497 5493 5499 5499 5493 5491 5491 5491 5491 5493 5489 5484 5481
5327 5334 5339 5344 5349 5355 5362 5370 5376 5383 5390 5399 5406 5410 5417 5423 5431 5438 5446 5451 5457 5460 5465 5469 5475 5479 5483 5485 5485 5484 5485 5480 5480 5486 5489 5479 5479 5482 5482 5480 5480 5478 5474 5469
5324 5331 5337 5344 5350 5356 5362 5369 5375 5382 5388 5393 5399 5406 5414 5421 5428 5434 5439 5446 5449 5454 5458 5463 5467 5472 5475 5475 5474 5475 5471 5466 5470 5477 5478 5470 5473 5470 5468 5469 5466 5465 5463 5460
5320 5328 5335 5340 5346 5353 5359 5365 5371 5378 5386 5392 5399 5404 5411 5417 5422 5428 5434 5438 5442 5446 5452 5455 5458 5459 5465 5463 5464 5462 5459 5458 5461 5467 5463 5462 5464 5459 5454 5455 5455 5454 5453 5451
5318 5322 5328 5334 5342 5349 5355 5362 5368 5374 5379 5386 5392 5399 5404 5408 5415 5421 5426 5430 5434 5439 5443 5445 5446 5451 5454 5455 5453 5451 5451 5451 5452 5457 5454 5453 5452 5449 5444 5442 5445 5443 5442 5440
5320 5324 5327 5331 5337 5343 5350 5358 5363 5369 5375 5380 5386 5390 5396 5403 5408 5413 5417 5421 5425 5429 5432 5433 5435 5438 5443 5444 5445 5445 5445 5446 5446 5445 5445 5444 5439 5438 5436 5433 5432 5431 5430 5429
5326 5328 5330 5332 5335 5340 5346 5350 5356 5362 5369 5375 5378 5384 5391 5395 5400 5405 5410 5414 5418 5420 5422 5424 5427 5430 5435 5439 5437 5437 5438 5439 5438 5436 5435 5434 5430 5426 5422 5419 5417 5417 5417 5417
5330 5332 5334 5336 5338 5341 5344 5349 5353 5357 5365 5369 5373 5378 5383 5386 5390 5397 5401 5404 5409 5410 5413 5416 5421 5424 5429 5429 5428 5430 5431 5432 5433 5432 5428 5424 5419 5413 5409 5406 5403 5403 5405 5408
5337 5338 5339 5340 5343 5347 5349 5353 5356 5358 5360 5364 5370 5372 5375 5380 5385 5388 5393 5397 5402 5404 5407 5410 5416 5419 5419 5421 5423 5425 5427 5429 5427 5425 5420 5412 5408 5403 5399 5396 5396 5397 5399 5404
5344 5344 5346 5347 5350 5352 5354 5356 5359 5360 5362 5365 5367 5369 5372 5375 5379 5382 5386 5391 5397 5400 5404 5407 5409 5411 5413 5416 5419 5421 5423 5423 5421 5418 5412 5405 5401 5398 5396 5395 5395 5398 5402 5405
5349 5351 5353 5355 5355 5357 5359 5359 5360 5360 5362 5363 5365 5367 5370 5372 5376 5380 5386 5390 5394 5397 5399 5401 5404 5408 5410 5413 5416 5418 5418 5417 5417 5413 5409 5404 5401 5400 5399 5399 5400 5401 5403 5408
5353 5355 5356 5358 5359 5360 5360 5360 5360 5360 5360 5362 5365 5367 5370 5373 5377 5381 5384 5387 5391 5394 5396 5398 5402 5404 5407 5410 5411 5413 5413 5412 5412 5411 5408 5407 5405 5404 5403 5403 5402 5404 5406 5409
5358 5359 5360 5361 5361 5361 5361 5360 5360 5361 5361 5362 5365 5368 5371 5374 5378 5381 5383 5387 5389 5392 5395 5397 5399 5401 5404 5406 5407 5408 5408 5408 5408 5409 5408 5407 5406 5406 5405 5404 5406 5408 5410 5411
5361 5361 5361 5362 5362 5362 5362 5362 5362 5362 5363 5365 5367 5370 5373 5375 5377 5380 5383 5386 5389 5391 5394 5395 5396 5398 5400 5402 5403 5404 5405 5406 5406 5406 5407 5407 5407 5407 5408 5408 5409 5411 5412 5413
5362 5363 5363 5363 5364 5364 5365 5364 5365 5365 5366 5368 5370 5372 5374 5377 5379 5381 5384 5386 5388 5389 5391 5391 5393 5395 5397 5399 5400 5401 5402 5403 5404 5405 5406 5407 5408 5408 5409 5410 5410 5410 5411 5412
5363 5364 5364 5365 5365 5366 5366 5367 5367 5368 5369 5369 5371 5373 5375 5377 5378 5381 5382 5384 5384 5385 5387 5388 5390 5392 5394 5395 5397 5398 5399 5401 5402 5403 5405 5406 5406 5407 5407 5408 5409 5410 5410 5410
Wind_Speed
58 45 61 83 95 94 95 103 111 97 88 94 94 86 86 85 83 79 79 75 75 73 73 69 69 70 69 66 66 67 68 67 67 63 63 64 60 62 65 63 61 62 63 70
44 49 55 67 85 98 94 95 97 99 94 100 95 89 88 86 85 83 79 73 76 78 77 79 78 76 75 71 70 71 69 69 61 62 63 61 62 60 59 58 60 62 63 65
43 52 54 57 62 84 90 96 104 105 110 101 97 89 88 85 80 83 79 81 78 75 79 80 81 81 78 74 71 69 64 63 60 54 56 58 57 57 58 59 60 57 64 67
34 35 63 75 73 75 93 99 104 105 105 99 94 89 87 84 78 80 80 79 78 82 82 83 86 81 78 70 61 60 60 57 54 53 54 53 53 56 57 60 61 63 64 69
16 40 46 74 83 87 95 97 104 99 94 94 93 89 87 82 79 75 80 73 75 79 90 90 84 80 71 60 58 56 54 51 50 49 50 50 50 52 53 55 56 63 66 69
18 46 39 48 72 84 94 93 88 95 91 96 91 87 88 82 80 72 75 78 80 85 86 78 67 58 55 49 48 48 47 47 48 49 50 49 52 49 53 55 58 60 60 57
12 54 64 47 54 59 70 84 91 80 87 83 89 82 83 77 76 75 83 82 81 72 70 63 58 54 50 47 46 47 47 46 47 45 46 47 48 51 51 54 51 47 46 41
18 35 51 72 75 69 54 74 74 62 65 63 65 61 58 76 74 74 70 68 60 54 51 50 47 47 47 47 46 45 43 42 41 42 43 43 45 49 55 48 43 40 40 39
21 27 44 27 48 49 62 69 68 65 56 72 65 63 69 69 60 58 56 55 48 49 47 46 45 44 42 43 41 39 37 36 38 42 41 45 48 51 46 41 43 41 42 40
21 20 29 34 33 31 32 36 35 27 33 38 44 49 50 51 50 48 48 46 45 44 42 41 40 39 35 34 33 33 33 38 39 41 44 44 45 43 44 37 34 42 39 39
21 19 19 22 25 26 29 34 41 36 35 38 41 39 39 41 39 37 38 39 39 39 37 36 33 32 29 30 32 34 35 37 39 42 45 47 38 36 42 38 35 37 37 40
23 22 22 21 21 23 25 27 30 33 34 37 38 37 38 38 35 36 38 36 34 32 32 30 28 28 29 31 34 34 36 37 43 40 38 36 34 36 36 37 35 34 37 34
29 27 24 22 24 27 27 26 27 27 29 32 34 35 34 34 35 35 34 32 30 30 28 27 30 31 31 31 32 35 39 42 43 35 25 32 35 34 35 36 36 33 31 29
38 34 32 30 28 25 25 29 29 30 28 29 31 33 33 32 32 33 32 32 32 32 32 31 30 31 29 32 36 38 42 43 34 24 26 36 34 35 37 38 35 28 30 31
38 42 41 37 35 34 32 30 30 30 32 33 33 32 33 33 33 33 32 32 31 31 30 30 31 33 31 36 38 41 41 33 29 26 31 34 34 37 40 38 36 33 37 35
23 32 41 45 44 41 35 35 37 36 36 34 34 33 33 33 32 32 33 33 33 32 32 33 36 34 36 34 37 36 26 27 31 30 32 34 35 36 37 41 41 42 43 42
12 12 18 26 34 40 41 39 38 37 36 36 36 36 36 36 36 37 37 36 36 36 36 36 36 34 31 32 32 24 30 33 31 30 32 33 35 38 42 44 45 41 39 41
12 14 13 13 18 25 31 35 36 36 37 39 40 41 41 41 41 41 40 39 37 35 33 33 33 33 32 29 24 30 29 26 27 30 32 36 39 41 40 43 42 37 34 33
11 11 10 14 17 17 16 17 22 30 36 37 37 37 37 37 39 38 37 32 31 33 33 34 33 32 27 23 27 21 21 24 27 30 28 34 36 37 42 33 30 28 23 18
13 11 14 17 21 21 19 16 11 10 12 17 12 17 24 39 43 42 39 36 28 28 31 30 28 25 23 23 18 17 21 19 24 22 33 32 32 29 25 19 16 14 15 19
13 15 14 12 17 16 14 8 7 6 4 10 12 15 16 14 18 23 27 26 19 17 18 24 22 19 19 16 16 17 18 19 19 22 22 15 11 7 3 0 6 15 17 14
11 14 14 15 11 9 4 2 5 7 5 10 14 15 15 16 18 18 27 25 23 17 16 21 20 19 18 15 15 17 18 19 18 18 18 10 9 11 4 13 4 11 11 8
16 12 12 11 8 6 4 6 2 2 5 11 14 16 17 17 21 19 21 23 19 18 18 19 17 18 15 16 15 13 16 14 12 11 8 2 4 2 5 10 14 10 9 11
12 11 7 4 3 4 3 3 3 2 4 11 13 18 17 20 20 17 18 18 17 16 15 13 15 16 16 16 13 10 10 7 8 5 3 3 2 8 9 13 13 12 10 9
7 6 4 4 8 10 8 6 5 5 8 11 16 18 19 18 19 18 17 15 13 10 11 11 14 15 17 15 14 11 12 10 8 6 8 7 10 12 12 11 10 8 6 4
7 8 9 8 7 4 4 8 8 7 9 10 11 13 15 17 17 16 13 11 10 13 14 14 15 16 16 16 14 12 11 11 12 13 13 11 10 9 7 6 3 1 3 6
6 9 7 7 6 5 4 5 3 4 6 10 11 14 15 15 16 14 13 13 15 14 12 15 17 19 14 13 14 12 15 16 16 15 13 11 7 5 3 4 6 8 10 12
Wind_Direction
215 225 222 216 214 211 213 215 217 219 222 223 223 226 231 232 233 237 239 241 239 241 249 253 256 256 255 260 259 262 263 265 264 265 266 268 271 267 269 271 273 273 274 282
221 221 223 215 214 214 212 209 214 220 224 224 223 225 228 232 232 235 239 241 239 242 249 250 252 255 258 258 262 262 265 265 261 261 265 265 266 268 269 270 272 275 280 286
239 242 224 211 211 215 215 206 205 212 218 221 222 225 228 228 229 234 240 241 242 245 249 250 253 254 258 258 263 260 254 255 260 259 259 263 263 265 267 269 273 279 283 286
260 253 209 203 201 208 212 209 209 214 217 220 222 222 227 227 230 234 237 240 244 247 250 251 252 254 255 254 250 251 252 255 254 252 255 258 261 265 270 275 280 285 287 289
209 154 198 197 201 208 211 211 209 212 218 224 223 224 227 230 232 238 239 241 244 248 248 250 252 252 246 248 249 250 251 248 249 250 253 257 263 269 277 282 285 286 288 290
189 156 174 197 194 202 208 208 208 214 221 222 225 229 232 232 231 245 245 244 244 244 244 242 240 239 241 243 243 241 240 243 246 251 256 263 268 277 280 285 286 286 286 289
183 171 164 179 201 189 203 205 207 216 218 222 225 230 233 236 241 243 241 241 239 237 238 240 243 244 236 230 231 236 241 246 252 260 265 270 278 282 286 288 288 280 279 280
153 179 163 178 184 187 190 206 218 216 217 227 223 227 228 237 235 235 233 232 234 235 233 227 220 220 224 229 235 242 249 256 265 271 277 280 286 286 288 288 278 277 281 281
165 153 179 177 176 185 196 204 216 223 221 226 226 235 230 224 223 220 222 222 222 220 217 217 222 229 232 235 242 252 262 269 273 278 278 284 289 288 289 277 274 280 284 292
183 169 162 166 165 164 170 182 187 170 196 205 203 210 208 206 208 208 208 209 209 213 217 220 225 233 242 250 258 264 267 271 276 278 283 287 287 285 279 266 278 284 292 289
208 198 188 175 169 166 168 165 164 178 176 177 183 187 193 196 198 206 209 210 211 216 224 230 240 248 255 262 265 269 273 275 278 281 286 291 284 273 270 276 283 285 290 291
206 208 205 197 191 183 182 182 177 178 180 185 185 190 193 194 198 204 208 213 220 228 235 242 250 254 258 263 265 272 278 278 276 283 290 278 268 265 273 280 285 286 288 293
211 209 210 208 199 188 188 190 191 191 192 191 192 196 200 203 207 213 219 223 230 236 243 246 250 257 261 261 268 276 279 278 277 282 281 265 269 276 277 281 284 286 290 299
210 214 218 216 214 214 209 203 201 200 202 203 204 206 209 213 217 222 227 231 234 238 243 250 255 254 256 266 272 279 276 273 273 273 263 265 274 276 279 283 287 285 291 297
213 214 212 218 222 223 224 223 220 219 219 219 220 221 223 225 228 231 233 236 239 242 247 251 252 258 267 274 279 275 268 266 264 263 258 263 270 279 285 286 287 286 290 287
204 215 219 219 216 213 216 221 224 226 227 226 227 229 230 232 231 232 235 239 243 247 248 253 258 264 270 271 264 258 264 263 264 267 268 277 284 288 288 289 287 286 285 284
161 182 204 217 223 226 225 223 221 216 221 224 223 224 227 229 230 233 236 241 243 247 254 261 264 262 261 258 256 252 257 261 265 268 273 280 287 285 282 283 283 281 283 285
115 121 139 171 196 210 216 222 222 223 222 223 226 229 229 230 231 235 239 243 247 250 249 248 245 247 246 250 245 247 256 263 274 278 286 290 285 284 290 286 278 276 277 279
114 115 121 136 149 160 166 188 210 219 223 222 223 226 225 232 234 235 234 239 244 242 238 236 238 241 242 237 244 253 260 267 274 285 282 289 290 284 297 287 279 269 265 242
95 125 138 130 124 120 118 117 113 132 171 190 199 214 229 237 240 241 242 244 238 230 229 232 233 233 235 240 244 250 255 267 284 290 306 296 293 293 283 270 258 238 210 184
113 131 144 138 134 132 138 130 106 92 149 172 188 199 202 198 196 202 206 208 209 213 223 225 229 229 235 241 246 245 254 269 265 304 322 306 291 299 334 5 169 159 160 143
130 141 136 138 136 141 141 231 293 290 258 193 188 188 191 191 184 192 202 210 216 218 219 224 226 227 231 230 229 238 266 263 279 317 332 18 78 65 91 151 141 128 132 167
139 144 137 150 178 207 257 307 25 86 189 189 180 181 185 178 178 195 208 213 217 216 217 224 223 228 226 222 229 250 261 265 276 313 327 75 145 132 175 133 118 133 168 174
135 140 155 177 239 222 179 173 168 132 152 181 181 175 181 186 189 203 213 203 197 204 214 225 224 224 217 223 236 242 232 256 264 291 230 242 256 141 110 101 105 111 117 124
180 193 180 153 117 110 96 97 123 144 136 143 159 169 177 186 195 188 175 180 194 203 202 222 224 221 215 219 210 218 234 265 248 251 237 199 138 118 114 112 112 115 112 114
181 156 167 169 146 117 109 107 98 116 147 148 163 173 182 183 177 174 181 192 196 202 204 228 219 211 215 207 203 223 237 214 189 171 160 152 155 152 149 153 152 199 273 284
182 175 180 199 219 205 191 191 150 141 146 166 177 192 194 195 191 195 204 208 219 224 243 229 224 214 213 208 207 221 215 203 189 188 184 194 193 195 224 269 268 267 285 291